Location: Tamazert
(32.6352°N, 5.2072°W)
Time: 04:13:24
(UTC+00:00)

Vanguard 2 - Pass Details

Date: 07 October 2022
Orbit: 553 x 2933 km, 32.9° (Epoch: 04 December)

Event Time Altitude Azimuth Distance (km) Brightness Sun altitude
Rises 16:07:02 0° 282° (WNW) 5,352 12.7 21.8°
Reaches altitude 10° 16:10:05 10° 281° (W) 4,617 12.6 21.2°
Maximum altitude 16:24:10 76° 199° (SSW) 2,801 10.8 18.4°
Drops below altitude 10° 16:42:11 10° 118° (ESE) 5,712 11.6 14.8°
Sets 16:46:27 0° 116° (ESE) 6,627 11.9 13.9°
